Pittsburgh, PA

3:30 AM EDT on September 16, 2019 (GMT -0400)
Pittsburgh International

Weather History for KPIT - August, 2019

Change the Weather History Date:

Sunday, August 18, 2019

  Actual Average Record
Temperature  
Mean Temperature 78 °F 72 °F  
Max Temperature 89 °F 82 °F 95 °F (1884)
Min Temperature 67 °F 62 °F 43 °F (1981)
Degree Days  
Heating Degree Days 0 0  
Month to date heating degree days 0 0  
Since 1 June heating degree days 35 42  
Since 1 July heating degree days 0 4  
Cooling Degree Days 13 7  
Month to date cooling degree days 150 130  
Year to date cooling degree days 687 573  
Since 1 June cooling degree days 604 521  
Growing Degree Days 28 (Base 50)    
Moisture  
Dew Point 68 °F    
Average Humidity 72    
Maximum Humidity 93    
Minimum Humidity 50    
Precipitation  
Precipitation 0.00 in 0.11 in 1.87 in (1931)
Month to date precipitation 1.48 2.09  
Year to date precipitation 33.79 25.32  
Snow  
Snow 0.00 in 0.00 in 0.00 in (2002)
Month to date snowfall 0.0 0.0  
Since 1 July snowfall 0.0 0.0  
Snow Depth 0.00 in    
Sea Level Pressure  
Sea Level Pressure 29.99 in    
Wind  
Wind Speed 6 mph (South)    
Max Wind Speed 16 mph    
Max Gust Speed 23 mph    
Visibility 9 miles    
Events      
T = Trace of Precipitation, MM = Missing Value Source: NWS Daily Summary

Daily Weather History Graph

Daily Weather History Graph

Search for Another Location

Airport or City:

Astronomy

Aug. 18, 2019 Rise Set
Actual Time 6:34 AM EDT 8:14 PM EDT
Civil Twilight 6:05 AM EDT 8:43 PM EDT
Nautical Twilight 5:30 AM EDT 9:18 PM EDT
Astronomical Twilight 4:52 AM EDT 9:55 PM EDT
Moon 10:08 PM EDT (8/18) 9:18 AM EDT (8/18)
Length of Visible Light 14h 38m
Length of Day
13h 40m
Waning Gibbous, 91% of the Moon is Illuminated
Aug 18
Waning Gibbous
Aug 23
Last Quarter
Aug 30
New
Sep 5
First Quarter
Sep 14
Full

Hourly Weather History & Observations

Time (EDT) Temp. Heat Index Dew Point Humidity Pressure Visibility Wind Dir Wind Speed Gust Speed Precip Events Conditions
12:51 AM 71.1 °F - 68.0 °F 90% 30.01 in 9.0 mi South 3.5 mph - N/A   Scattered Clouds
1:51 AM 71.1 °F - 68.0 °F 90% 30.00 in 10.0 mi Calm Calm - N/A   Mostly Cloudy
2:51 AM 70.0 °F - 66.9 °F 90% 29.99 in 8.0 mi Calm Calm - N/A   Mostly Cloudy
3:51 AM 69.1 °F - 66.0 °F 90% 29.99 in 8.0 mi Calm Calm - N/A   Mostly Cloudy
4:51 AM 68.0 °F - 66.0 °F 93% 29.99 in 7.0 mi South 3.5 mph - N/A   Mostly Cloudy
5:51 AM 68.0 °F - 66.0 °F 93% 29.99 in 8.0 mi Calm Calm - N/A   Mostly Cloudy
6:51 AM 68.0 °F - 66.0 °F 93% 30.00 in 6.0 mi SSE 3.5 mph - N/A   Mostly Cloudy
7:51 AM 70.0 °F - 66.9 °F 90% 30.01 in 6.0 mi SSE 3.5 mph - N/A   Mostly Cloudy
8:51 AM 73.0 °F - 68.0 °F 84% 30.01 in 10.0 mi SSE 6.9 mph - N/A   Mostly Cloudy
9:51 AM 78.1 °F - 70.0 °F 76% 30.01 in 10.0 mi South 5.8 mph - N/A   Mostly Cloudy
10:51 AM 82.0 °F 85.5 °F 69.1 °F 65% 30.02 in 10.0 mi SW 10.4 mph - N/A   Mostly Cloudy
11:51 AM 84.0 °F 87.0 °F 68.0 °F 58% 30.02 in 10.0 mi SW 10.4 mph - N/A   Mostly Cloudy
12:51 PM 84.9 °F 88.2 °F 68.0 °F 57% 30.01 in 10.0 mi WSW 10.4 mph - N/A   Scattered Clouds
1:51 PM 86.0 °F 89.4 °F 68.0 °F 55% 30.01 in 10.0 mi SSW 9.2 mph - N/A   Scattered Clouds
2:51 PM 86.0 °F 89.4 °F 68.0 °F 55% 30.00 in 10.0 mi WSW 12.7 mph 19.6 mph N/A   Scattered Clouds
3:51 PM 88.0 °F 90.7 °F 66.9 °F 49% 29.98 in 10.0 mi SW 8.1 mph - N/A   Partly Cloudy
4:51 PM 87.1 °F 91.3 °F 69.1 °F 55% 29.97 in 10.0 mi Variable 6.9 mph - N/A   Partly Cloudy
5:51 PM 86.0 °F 89.4 °F 68.0 °F 55% 29.95 in 10.0 mi SSW 9.2 mph - N/A   Partly Cloudy
6:51 PM 86.0 °F 89.4 °F 68.0 °F 55% 29.96 in 10.0 mi SSW 9.2 mph - N/A   Partly Cloudy
7:51 PM 82.9 °F 86.5 °F 69.1 °F 63% 29.95 in 10.0 mi SSE 5.8 mph - N/A   Scattered Clouds
8:51 PM 80.1 °F 83.2 °F 70.0 °F 71% 29.94 in 10.0 mi SSE 6.9 mph - N/A   Scattered Clouds
9:51 PM 77.0 °F - 69.1 °F 76% 29.94 in 10.0 mi South 5.8 mph - N/A   Scattered Clouds
10:51 PM 75.9 °F - 69.1 °F 79% 29.96 in 10.0 mi South 5.8 mph - N/A   Mostly Cloudy
11:51 PM 75.9 °F - 69.1 °F 79% 29.96 in 10.0 mi South 4.6 mph - N/A   Mostly Cloudy